Tracking 23099 objects as of 13-May-2021
HD Live streaming from Space Station
objects crossing your sky now

FLOCK 4P 1

Track FLOCK 4P 1 now!
10-day predictions
FLOCK 4P 1 is classified as:


NORAD ID: 44814
Int'l Code: 2019-081L
Perigee: 500.7 km
Apogee: 517.4 km
Inclination: 97.5 °
Period: 94.7 minutes
Semi major axis: 6880 km
RCS: Unknown
Launch date: November 27, 2019
Source: United States (US)
Launch site: SRIHARIKOTA (SRI)
aabbcc
Your satellite tracking list
Your tracking list is empty




NASA's NSSDC Master Catalog

Two Line Element Set (TLE):
1 44814U 19081L   21133.70573653  .00001264  00000-0  59580-4 0  9990
2 44814  97.4517 197.9732 0012124 168.4864 191.6651 15.21289844 81058
Source of the keplerian elements: AFSPC